Flag for U.S.A. Weather past 2 weeks in Santa Barbara, California, U.S.A.

Now
65 °F

Overcast.


Feels Like: 65 °F
Forecast: 62 / 74 °F
Wind: 3 mph from Southeast

Location: Santa Barbara Municipal Airport

Current Time: Sep 2, 2015 at 4:03:33 AM

Latest Report: Sep 2, 2015 at 2:53 AM


Visibility: 10 mi

Pressure: 29.93 "Hg

Humidity: 87%

Dew point: 61 °F

Location of Santa BarbaraLocation

Historic Weather in Santa Barbara — Graph

°F

Santa Barbara temperature yesterday

Maximum temperature yesterday: 76 °F (at 12:53 PM)
Minimum temperature yesterday: 66 °F (at 7:53 AM)
Average temperature yesterday: 70 °F

Past Weeks' High & Low Weather Summary

 TemperatureHumidityPressure
High92 °F (Aug 29, 6:53 PM)97% (Aug 19, 7:53 AM)29.98 "Hg (Aug 19, 7:53 AM)
Low59 °F (Aug 20, 1:53 AM)29% (Aug 29, 7:53 PM)29.77 "Hg (Aug 30, 6:53 PM)
Average72 °F75%29.89 "Hg
* Reported Aug 18 2:53 AM — Sep 2 2:53 AM, Santa Barbara, Weather by CustomWeather, © 2015

Note: Actual official high and low records may vary slightly from our data, if they occured in-between our weather recording intervals... More about our weather records

Advertising

Santa Barbara weather history for previous 24 hours

 ConditionsComfort  
Time TempWeatherWind HumidityBarometerVisibility
2:53 AM
Wed, Sep 2
65 °FOvercast.3 mph87%29.93 "Hg10 mi
1:53 AM67 °FOvercast.No wind85%29.93 "Hg10 mi
12:53 AM65 °FOvercast.No wind87%29.94 "Hg10 mi
11:53 PM
Tue, Sep 1
66 °FPassing clouds.No wind81%29.94 "Hg10 mi
10:53 PM68 °FClear.No wind78%29.91 "Hg10 mi
9:53 PM68 °FClear.5 mph76%29.91 "Hg10 mi
8:53 PM70 °FPassing clouds.5 mph73%29.93 "Hg10 mi
7:53 PM70 °FSunny.10 mph73%29.90 "Hg10 mi
6:53 PM72 °FPartly sunny.7 mph68%29.87 "Hg10 mi
5:53 PM73 °FSunny.12 mph66%29.87 "Hg10 mi
4:53 PM75 °FScattered clouds.12 mph64%29.87 "Hg10 mi
3:53 PM75 °FSunny.12 mph64%29.88 "Hg10 mi
1:53 PM75 °FScattered clouds.7 mph64%29.90 "Hg10 mi
12:53 PM76 °FPartly sunny.6 mph62%29.91 "Hg9 mi
11:53 AM73 °FOvercast.N/A66%29.92 "Hg10 mi
10:53 AM73 °FMore clouds than sun.5 mph69%29.95 "Hg10 mi
9:53 AM72 °FOvercast.No wind71%29.94 "Hg7 mi
8:53 AM68 °FOvercast.3 mph84%29.91 "Hg7 mi
7:53 AM66 °FFog.3 mph90%29.92 "Hg4 mi
6:53 AM67 °FOvercast.No wind81%29.91 "Hg7 mi
5:53 AM67 °FOvercast.No wind81%29.89 "Hg10 mi
4:53 AM67 °FOvercast.3 mph81%29.89 "Hg10 mi
Weather by CustomWeather, © 2015

See weather overviewHow to use our weather pages